Regional Weather Roundup
Issued by NWS

Home | Current Version | Previous Version | Text Only | Print | Product List | Glossary On
Versions: 1 2 3 4 5 6 7 8 9 10 11 12 13 14 15 16 17 18 19 20 21 22 23 24 25 26 27 28 29 30 31 32 33 34 35 36 37 38 39 40 41 42 43 44 45 46 47 48 49 50
000
ASUS43 KMKX 051700
RWRWI

WISCONSIN REGIONAL WEATHER ROUNDUP
NATIONAL WEATHER SERVICE MILWAUKEE/SULLIVAN WI
1200 PM CDT THU MAY 05 2016

NOTE: "FAIR" INDICATES FEW OR NO CLOUDS BELOW 12,000 FEET WITH NO
SIGNIFICANT WEATHER AND/OR OBSTRUCTIONS TO VISIBILITY.

WIZ001-002-006>008-014>016-023>028-051800-
NORTHWEST WISCONSIN

CITY           SKY/WX    TMP DP  RH WIND       PRES   REMARKS
SUPERIOR ARPT  MOSUNNY   62  40  45 SW10G20   29.96F
ASHLAND        SUNNY     66  33  29 SW12      29.97F
HAYWARD        MOSUNNY   63  32  31 SW7       30.00F
SIREN          PTSUNNY   58  35  41 SW7       30.03R
CUMBERLAND     PTSUNNY   59  30  33 SW12G18   30.02F
RICE LAKE      SUNNY     61  31  32 SW10      30.05F
CHETEK         MOSUNNY   61  33  35 W9        30.03F
LADYSMITH      SUNNY     59  32  35 SW8       30.05F
EAU CLAIRE     NOT AVBL
MENOMONIE      SUNNY     65  34  31 S8        30.04F
NEW RICHMOND   CLOUDY    60  33  35 SW8       30.05S
OSCEOLA        MOSUNNY   60  36  40 S9        30.07R
$$

WIZ003>005-009-010-017-018-051800-
NORTH CENTRAL WISCONSIN

CITY           SKY/WX    TMP DP  RH WIND       PRES   REMARKS
MANITOWISH WTR SUNNY     57  27  32 W7        30.00F
ARBOR VITAE    SUNNY     59  28  29 NW8       30.01F
WOODRUFF       SUNNY     59  28  29 NW8       30.01F
RHINELANDER    SUNNY     59  27  29 W7        30.01F
EAGLE RIVER    SUNNY     59  23  25 N6        30.00F
LAND O LAKES   SUNNY     58  24  27 W3        30.01F
PHILLIPS       CLOUDY    58  33  39 SW9       30.01F
TOMAHAWK       SUNNY     58  29  33 NW5       30.02F
MEDFORD        SUNNY     55  36  47 W7        30.03F
MERRILL        SUNNY     58  32  38 NW5       30.02F
$$

WIZ029-030-035-036-043>047-051800-
CENTRAL WISCONSIN

CITY           SKY/WX    TMP DP  RH WIND       PRES   REMARKS
WAUSAU         SUNNY     60  32  34 VRB3      30.01F
MOSINEE        SUNNY     57  34  41 CALM      30.04F
MARSHFIELD     SUNNY     59  32  36 VRB6      30.04S
STEVENS POINT  SUNNY     55  34  45 W8        30.04F
WAUPACA        SUNNY     58  36  43 CALM      30.04F
WAUTOMA        NOT AVBL
WISC RAPIDS    SUNNY     60  30  32 N7        30.06S
CAMP DOUGLAS   NOT AVBL
$$

WIZ011>013-019>022-031-037>040-048>050-051800-
NORTHEAST WISCONSIN

CITY           SKY/WX    TMP DP  RH WIND       PRES   REMARKS
ANTIGO         SUNNY     56  33  41 W7        30.02F
SHAWANO        SUNNY     56  36  46 S3        30.04F
OCONTO         SUNNY     54  37  53 S7        30.03F
STURGEON BAY   SUNNY     48  36  61 NW6       30.06S
GREEN BAY      SUNNY     56  40  55 W8        30.03F
MANITOWOC      NOT AVBL
APPLETON       SUNNY     54  36  50 VRB5      30.03F
CLINTONVILLE   SUNNY     55  34  44 NE5       30.04F
OSHKOSH        SUNNY     54  37  52 NW3       30.04S
$$

WIZ032>034-041-042-053>061-051800-
SOUTHWEST WISCONSIN

CITY           SKY/WX    TMP DP  RH WIND       PRES   REMARKS
LA CROSSE      SUNNY     59  36  42 NW3       30.07S
SPARTA         SUNNY     59  34  38 CALM      30.07S
VIROQUA        SUNNY     56  33  40 CALM      30.07S
BOSCOBEL       SUNNY     62  37  39 W7        30.06F
PRAIRIE DU CHI SUNNY     58  33  38 W5        30.07S
PLATTEVILLE    SUNNY     57  40  52 N7        30.07S
$$

WIZ056-057-062-063-064-067-068-051800-
SOUTH CENTRAL WISCONSIN

CITY           SKY/WX    TMP DP  RH WIND       PRES   REMARKS
REEDSBURG      SUNNY     56  39  51 NW3       30.06S
BARABOO/DELLS  SUNNY     56  32  40 N5        30.06S
LONE ROCK      NOT AVBL
MINERAL POINT  SUNNY     59  36  41 NW5       30.06S
MADISON        SUNNY     58  39  49 VRB6      30.04F
MIDDLETON      SUNNY     57  39  50 N5        30.06S
WATERTOWN      SUNNY     55  39  56 N6        30.04S
MONROE         SUNNY     54  37  54 N7        30.05S
JANESVILLE     NOT AVBL
$$

WIZ051-052-058>065-066-070>072-051800-
SOUTHEAST WISCONSIN

CITY           SKY/WX    TMP DP  RH WIND       PRES   REMARKS
MILWAUKEE      SUNNY     53  39  59 N12G21    30.04S
WAUKESHA       SUNNY     54  37  54 N6        30.03F
MILWAUKEE/TIMM SUNNY     55  36  47 CALM      30.03F
RACINE         SUNNY     52  39  61 N13       30.05S
BURLINGTON     SUNNY     55  38  53 N7        30.02S
KENOSHA        SUNNY     56  40  55 N12       30.03S
FOND DU LAC    SUNNY     54  38  54 NE8       30.05S
SHEBOYGAN      SUNNY     54  41  61 NE9       30.03F
WEST BEND      SUNNY     55  36  47 NE7       30.02F
JUNEAU         SUNNY     53  38  57 W5        30.05F
$$

LSZ147-162-051800-
LAKE SUPERIOR

STATION/POSITION TIME  TEMP    WIND        PRES    WAVE
                       AIR SEA DIR/SP/G            HT/PER
                 (UTC) (F)     (DEG/KT/KT) (MB)    (FT/S)
W MID LAKE BUOY  1550   38 37  210/ 10/ 10 1016.0F   0
DEVILS ISLAND    1600   46     240/  8/ 11 1015.6F
PORT WING        1540   43     310/  8/ 11 1015.2
SAXON HARBOR     1600   60     200/  7/ 14 1015.2F
$$

LMZ867-665-643>646-051800-
LAKE MICHIGAN

STATION/POSITION TIME  TEMP    WIND        PRES    WAVE
                       AIR SEA DIR/SP/G            HT/PER
                 (UTC) (F)     (DEG/KT/KT) (MB)    (FT/S)
CHAMBERS ISLAND  1600   45      50/  3/  4 1017.3F
N MID LAKE BUOY  1550   39 39  280/  6/  6 1016.9S   1/ 3
NORTHPORT PIER   1600   41     320/  8/ 10 1017.3S
ALGOMA LAKESHORE 1615          100/  8/  9   N/A
KEWAUNEE LAKESHO 1600   47      50/  4/  6 1016.5R
SHEBOYGAN LAKESH 1600   43      20/ 10/ 11 1018.1R
PORT WASHINGTON  1640   48      40/ 10/ 12 1017.9S
S MID LAKE BUOY  1550   40 40   10/ 16/ 17 1015.9R   4/ 6
KENOSHA   LAKESH 1600   45      10/ 12/ 15 1016.9R
$$

TC  - TEMPERATURE IN CELSIUS
VSB - VISIBILITY IN STATUTE MILES
WCI - WIND CHILL INDEX
HX  - HEAT INDEX





USA.gov is the U.S. government's official web portal to all federal, state and local government web resources and services.